DB0GIS-11 Weather Reports


Display with metric or nautical units.
time (UTC)temp
F
wind
direction
speed
MPH
gust
MPH
rain 1hr
in
rain 24hr
in
rain mn
in
humidity
%
barometer
mb
20260507014720 48 293 1.0 2.0 0.00 0.00 0.00 10 1006.5
20260507013743 48 293 3.0 5.0 0.00 0.00 0.00 10 1006.4
20260507012728 48 293 1.0 3.0 0.00 0.00 0.00 10 1006.4
20260507011737 48 0.0 0.0 0.00 0.00 0.00 10 1006.3
20260507010819 48 0.0 0.0 0.00 0.00 0.00 10 1006.1
20260507004717 48 0.0 0.0 0.00 0.00 0.00 10 1006.1
20260507002725 48 315 0.0 1.0 0.00 0.00 0.00 10 1006.0
20260507001734 48 0.0 0.0 0.00 0.00 0.00 10 1005.8
20260507000807 48 0.0 0.0 0.00 0.00 0.00 10 1005.8
20260506235718 48 315 1.0 2.0 0.00 0.00 0.00 10 1005.9
20260506234735 49 0.0 0.0 0.00 0.00 0.00 10 1006.0
20260506233722 49 315 0.0 2.0 0.00 0.00 0.00 10 1005.8
20260506231718 49 315 0.0 2.0 0.00 0.00 0.00 10 1005.8
20260506230726 49 293 6.0 7.0 0.00 0.00 0.00 10 1005.8
20260506225719 49 315 0.0 1.0 0.00 0.00 0.00 10 1005.7
20260506224724 49 0.0 0.0 0.00 0.00 0.00 10 1005.7
20260506223801 49 315 1.0 4.0 0.00 0.00 0.00 10 1005.5
20260506222722 50 315 2.0 6.0 0.00 0.00 0.00 10 1005.4
20260506221739 50 0.0 0.0 0.00 0.00 0.00 10 1005.3
20260506220731 50 0.0 0.0 0.00 0.00 0.00 10 1005.3
20260506215719 50 0.0 0.0 0.00 0.00 0.00 10 1005.1
20260506214726 50 315 1.0 2.0 0.00 0.00 0.00 10 1005.3
20260506213729 50 315 1.0 2.0 0.00 0.00 0.00 10 1005.2
20260506212736 51 0.0 0.0 0.00 0.00 0.00 10 1005.1
20260506211808 51 0.0 0.0 0.00 0.00 0.00 10 1005.1
20260506210721 51 0.0 0.0 0.00 0.00 0.00 10 1004.9
20260506204716 51 306 0.0 2.0 0.00 0.00 0.00 10 1004.8
20260506203731 51 0.0 0.0 0.00 0.00 0.00 10 1004.7
20260506202722 51 0.0 0.0 0.00 0.00 0.00 10 1004.7
20260506201719 51 0.0 0.0 0.00 0.00 0.00 10 1004.5
20260506200724 51 0.0 0.0 0.00 0.00 0.00 10 1004.4
20260506195728 51 315 2.0 5.0 0.00 0.00 0.00 10 1004.2
20260506194733 51 315 1.0 2.0 0.00 0.00 0.00 10 1004.0
20260506192729 52 0.0 0.0 0.00 0.00 0.00 10 1004.0
20260506191719 52 322 2.0 8.0 0.00 0.00 0.00 10 1003.9
20260506190724 52 331 1.0 4.0 0.00 0.00 0.00 10 1003.7
20260506185719 52 315 5.0 7.0 0.00 0.00 0.00 10 1003.7
20260506184721 53 315 1.0 5.0 0.00 0.00 0.00 10 1003.5
20260506183740 53 315 1.0 4.0 0.00 0.00 0.00 10 1003.2
20260506182722 54 315 2.0 5.0 0.00 0.00 0.00 10 1003.2
20260506181721 54 306 3.0 6.0 0.00 0.00 0.00 10 1003.1
20260506180725 55 315 1.0 4.0 0.00 0.00 0.00 10 1003.0
20260506175721 56 315 2.0 4.0 0.00 0.00 0.00 10 1002.9
20260506173805 56 0.0 0.0 0.00 0.00 0.00 10 1002.5
20260506172720 56 0.0 0.0 0.00 0.00 0.00 10 1002.6
20260506171733 56 293 1.0 3.0 0.00 0.00 0.00 11 1002.3
20260506170733 57 293 5.0 8.0 0.00 0.00 0.00 12 1002.3
20260506165718 57 265 3.0 7.0 0.00 0.00 0.00 15 1002.1
20260506164721 57 270 5.0 6.0 0.00 0.00 0.00 17 1002.3
20260506163719 58 248 0.0 2.0 0.00 0.00 0.00 15 1002.2
20260506162731 58 270 3.0 6.0 0.00 0.00 0.00 15 1002.2
20260506161735 59 270 1.0 4.0 0.00 0.00 0.00 13 1002.1
20260506160736 59 248 0.0 2.0 0.00 0.00 0.00 14 1002.2
20260506155732 59 232 1.0 3.0 0.00 0.00 0.00 23 1002.2
20260506154716 60 270 1.0 3.0 0.00 0.00 0.00 28 1002.2
20260506153743 60 241 3.0 6.0 0.00 0.06 0.00 26 1002.0
20260506152718 60 229 1.0 5.0 0.00 0.20 0.00 25 1001.9
20260506151737 60 0.0 0.0 0.00 0.29 0.00 28 1001.9
20260506150721 60 0.0 0.0 0.00 0.31 0.00 30 1001.7
20260506145727 60 0.0 0.0 0.00 0.31 0.00 34 1001.7
20260506144727 60 270 1.0 3.0 0.00 0.31 0.00 35 1001.8
20260506143723 61 287 2.0 7.0 0.00 0.31 0.00 40 1001.9
20260506142722 61 248 4.0 7.0 0.00 0.31 0.00 44 1001.8
20260506141736 62 0.0 0.0 0.00 0.31 0.00 49 1001.7
20260506140745 62 248 1.0 5.0 0.00 0.31 0.00 51 1001.5
20260506135732 63 270 0.0 2.0 0.00 0.31 0.00 47 1001.5
20260506134748 63 248 1.0 3.0 0.00 0.31 0.00 44 1001.6
20260506133721 63 0.0 0.0 0.00 0.31 0.00 44 1001.5
20260506132748 62 248 2.0 6.0 0.00 0.31 0.00 44 1001.6
20260506131746 62 0.0 0.0 0.00 0.31 0.00 45 1001.6
20260506130733 62 216 1.0 3.0 0.00 0.31 0.00 44 1001.7
20260506125721 63 241 2.0 5.0 0.00 0.31 0.00 45 1001.6
20260506124721 63 0.0 0.0 0.00 0.31 0.00 42 1001.7
20260506123733 63 225 1.0 8.0 0.00 0.31 0.00 38 1001.6
20260506122722 62 0.0 0.0 0.00 0.31 0.00 40 1001.6
20260506121722 62 203 1.0 4.0 0.00 0.31 0.00 32 1001.6
20260506120719 61 169 4.0 7.0 0.00 0.31 0.00 26 1001.6
20260506115727 60 180 0.0 2.0 0.00 0.31 0.00 30 1001.6
20260506114738 60 180 2.0 5.0 0.00 0.31 0.00 33 1001.8
20260506113756 60 0.0 0.0 0.00 0.31 0.00 35 1001.7
20260506112725 61 158 0.0 1.0 0.00 0.31 0.00 34 1001.8
20260506111718 61 158 0.0 2.0 0.00 0.31 0.00 35 1001.7
20260506110722 61 0.0 0.0 0.00 0.31 0.00 33 1001.6
20260506105805 61 0.0 0.0 0.00 0.31 0.00 30 1001.6
20260506104728 60 0.0 0.0 0.00 0.31 0.00 31 1001.6
20260506103725 61 0.0 0.0 0.00 0.31 0.00 32 1001.7
20260506102742 62 207 6.0 8.0 0.00 0.31 0.00 31 1001.6
20260506101730 62 212 4.0 6.0 0.00 0.31 0.00 20 1001.6
20260506100736 62 203 2.0 7.0 0.00 0.31 0.00 10 1001.7
20260506095729 62 225 4.0 7.0 0.00 0.31 0.00 10 1001.6
20260506094726 61 212 2.0 4.0 0.00 0.31 0.00 10 1001.7
20260506093753 60 0.0 0.0 0.00 0.31 0.00 10 1001.7
20260506092722 60 225 0.0 3.0 0.00 0.31 0.00 10 1001.7
20260506091740 60 211 1.0 4.0 0.00 0.31 0.00 10 1001.7
20260506085733 58 248 0.0 1.0 0.00 0.31 0.00 10 1001.6
20260506084737 58 0.0 0.0 0.00 0.31 0.00 10 1001.6
20260506083806 58 0.0 0.0 0.00 0.31 0.00 10 1001.5
20260506082721 59 225 1.0 5.0 0.00 0.31 0.00 10 1001.5
20260506081746 59 227 3.0 7.0 0.00 0.31 0.00 10 1001.5
20260506080744 59 203 1.0 4.0 0.00 0.31 0.00 10 1001.3
20260506072809 58 204 2.0 10.0 0.00 0.31 0.00 10 1001.3
20260506071735 57 207 1.0 5.0 0.00 0.31 0.00 10 1001.3
20260506070729 57 0.0 0.0 0.00 0.31 0.00 10 1001.3
20260506061728 55 180 1.0 2.0 0.00 0.31 0.00 10 1001.1
20260506060755 55 0.0 0.0 0.00 0.31 0.00 10 1001.2
20260506050715 55 0.0 0.0 0.00 0.33 0.00 10 1001.1
20260506044728 55 0.0 0.0 0.00 0.33 0.00 10 1001.2
20260506043743 54 0.0 0.0 0.00 0.33 0.00 10 1001.2
20260506042732 54 0.0 0.0 0.00 0.33 0.00 10 1001.3
20260506041742 54 0.0 0.0 0.00 0.33 0.00 10 1001.3
20260506040811 54 0.0 0.0 0.00 0.33 0.00 10 1001.3
20260506035719 54 0.0 0.0 0.00 0.33 0.00 10 1001.2
20260506034719 54 225 0.0 2.0 0.00 0.33 0.00 10 1001.3
20260506033819 54 0.0 0.0 0.00 0.33 0.00 10 1001.3
20260506032726 55 0.0 0.0 0.00 0.33 0.00 10 1001.2
20260506031742 55 0.0 0.0 0.00 0.33 0.00 10 1001.2
20260506030811 55 180 1.0 2.0 0.00 0.33 0.00 10 1001.3
20260506025737 55 180 1.0 3.0 0.00 0.33 0.00 10 1001.3
20260506024729 55 0.0 0.0 0.00 0.33 0.00 10 1001.3
20260506023721 55 0.0 0.0 0.00 0.33 0.00 10 1001.3
20260506022735 55 0.0 0.0 0.00 0.33 0.00 10 1001.3
20260506021722 55 0.0 0.0 0.00 0.33 0.00 10 1001.3
20260506020759 55 0.0 0.0 0.00 0.33 0.00 10 1001.5
20260506015724 55 0.0 0.0 0.00 0.33 0.00 10 1001.4